Regional Weather Roundup
Issued by NWS Sterling, VA

Home | Current Version | Previous Version | Graphics & Text | Print | Product List | Glossary On
Versions: 1 2 3 4 5 6 7 8 9 10 11 12 13 14 15 16 17 18 19 20 21 22 23 24 25 26 27 28 29 30 31 32 33 34 35 36 37 38 39 40 41 42 43 44 45 46 47 48 49 50
000
ASUS41 KLWX 220910
RWRLWX

REGIONAL WEATHER ROUNDUP
NATIONAL WEATHER SERVICE BALTIMORE MD/WASHINGTON DC
500 AM EDT MON SEP 22 2014

Note: "FAIR" indicates few or no clouds below 12,000 feet
with no significant weather and/or obstructions to visibility.
 TC=TEMPERATURE CELSIUS

 * =Non NWS site. Station does not report precipitation (e.g. rain,
    snow, etc.), thunder, or fog.

DCZ001-MDZ009-015-VAZ040>042-051-053>054-221000-
WASHINGTON METRO

CITY           SKY/WX    TMP DP  RH WIND       PRES   REMARKS
WASHINGTON NAT PTCLDY    68  46  45 W12       29.86R
DULLES         CLEAR     59  47  64 W6        29.87R
ANDREWS AFB    CLEAR     65  48  53 W13       29.85R
QUANTICO       CLEAR     66  46  48 N13G21    29.89R
COLLEGE PARK*  CLEAR     64  48  55 W6        29.85R
LEESBURG*      CLEAR     63  52  67 NW8       29.88R
MANASSAS*      CLEAR     61  50  67 W3        29.88R
GAITHERSBURG*  PTCLDY    61  46  59 CALM      29.90R

$$

MDZ006>007-011-014-221000-
BALTIMORE METRO

CITY           SKY/WX    TMP DP  RH WIND       PRES   REMARKS
BWI AIRPORT    CLEAR     63  48  58 W12       29.83R
MD SCIENCE CTR   N/A     66  47  50 MISG      29.83R
MARTIN STATE   CLEAR     64  50  59 W9        29.83R
ANNAPOLIS      CLEAR     65  48  54 W8G17     29.83R
FORT MEADE*    CLEAR     59  52  77 W9        29.86R

$$

MDZ012-015-019>023-221000-
MARYLAND EASTERN SHORE

CITY           SKY/WX    TMP DP  RH WIND       PRES   REMARKS
OCEAN CITY     CLEAR     68  52  56 NW6       29.81R
SALISBURY      PTCLDY    70  51  51 NW8       29.82R
BAY BRIDGE AP*   N/A     66  46  48 W17G28    29.83R
CAMBRIDGE*     CLEAR     70  48  46 W7        29.83R
EASTON*        CLEAR     68  51  55 N10       29.87R

$$

MDZ017>025-221000-
SOUTHERN MARYLAND

CITY           SKY/WX    TMP DP  RH WIND       PRES   REMARKS
PATUXENT RIVER PTCLDY    68  47  46 NW15G26   29.85R
ST INIGOES     PTCLDY    68  48  48 W6        29.85R
LEONARDTOWN*   PTCLDY    64  45  48 W6        29.86R

$$

MDZ003>005-221000-
NORTH CENTRAL MARYLAND

CITY           SKY/WX    TMP DP  RH WIND       PRES   REMARKS
FREDERICK*     PTCLDY    64  52  63 W3        29.88R
HAGERSTOWN APT PTCLDY    59  50  72 NW5       29.87R
WESTMINSTER*   MOCLDY    61  50  67 MISG      29.85R

$$

MDZ501>502-221000-
WESTERN MARYLAND

CITY           SKY/WX    TMP DP  RH WIND       PRES   REMARKS
OAKLAND*       CLOUDY    46 N/A N/A NW8G24    29.95R FOG
CUMBERLAND*    CLOUDY    59  52  77 NW3       29.95R

$$

VAZ025>031-221000-
SHENANDOAH VALLEY

CITY           SKY/WX    TMP DP  RH WIND       PRES   REMARKS
WINCHESTER*    MOCLDY    61  46  59 NW6       29.89R
STAUNTON*      CLOUDY    60  45  58 SW3       29.95R

$$

WVZ021-048>050-054>055-221000-
EASTERN WEST VIRGINIA PANHANDLE

CITY           SKY/WX    TMP DP  RH WIND       PRES   REMARKS
MARTINSBURG    CLOUDY    64  47  53 NW14G20   29.89R
PETERSBURG*    CLOUDY    61  45  56 W6        29.95R

$$

VAZ036>039-050-221000-
CENTRAL FOOTHILLS

CITY           SKY/WX    TMP DP  RH WIND       PRES   REMARKS
CHARLOTTESVILL CLEAR     63  45  51 W5        29.91R
ORANGE*        CLEAR     63  45  51 W6        29.92R

$$

VAZ055>057-221000-
NORTH AND CENTRAL PIEDMONT

CITY           SKY/WX    TMP DP  RH WIND       PRES   REMARKS
FREDERICKSBRG* CLEAR     64  51  63 W3        29.87R
STAFFORD*      CLEAR     56  50  79 NW7       29.92R

$$

NCZ024-NYZ072-PAZ021-071-VAZ022-071-221000-
OTHER REGIONAL OBSERVATIONS

CITY           SKY/WX    TMP DP  RH WIND       PRES   REMARKS
NEW YORK CITY  CLEAR     66  57  72 VRB6      29.73R
PHILADELPHIA   PTCLDY    65  56  72 W12       29.77R
PITTSBURGH     CLOUDY    53  47  79 NW13      29.97R
ROANOKE        PTCLDY    57  47  69 NW7       29.99R
RICHMOND       MOCLDY    72  45  37 NW9       29.87R
RALEIGH        MOCLDY    68  60  75 CALM      29.92R

$$

ANZ530>537-221000-
MARINE OBSERVATIONS

STATION/POSITION TIME  TEMP    WIND        PRES
                       AIR SEA DIR/SP/G
                 (UTC) (F)     (DEG/KT/KT) (MB)
THOMAS PT LIGHT  0900   67 74  290/ 14/ 16 1011.2R
BALT KEY BRIDGE  0900   67     270/ 14/ 16 1009.6R
COVE POINT       0900   69     330/ 11/ 17 1010.1R
LEWISETTA        0900          320/ 10/ 13   N/A
SOLOMONS ISLAND  0900      76                N/A
PINEY POINT      0900          330/ 17/ 19   N/A

$$



USA.gov is the U.S. government's official web portal to all federal, state and local government web resources and services.